Regional Weather Roundup
Issued by NWS Raleigh/Durham, NC

Home | Current Version | Previous Version | Text Only | Print | Product List | Glossary On
Versions: 1 2 3 4 5 6 7 8 9 10 11 12 13 14 15 16 17 18 19 20 21 22 23 24 25 26 27
000
ASUS42 KRAH 210510
RWRRAH
NORTH CAROLINA WEATHER ROUNDUP
NATIONAL WEATHER SERVICE RALEIGH NC
100 AM EDT SAT OCT 21 2017

NOTE: "FAIR" INDICATES FEW OR NO CLOUDS BELOW 12,000 FEET WITH NO
SIGNIFICANT WEATHER AND/OR OBSTRUCTIONS TO VISIBILITY.

NCZ001-053-055-056-065-067-210600-
WESTERN NORTH CAROLINA

CITY           SKY/WX    TMP DP  RH WIND       PRES   REMARKS
ASHEVILLE      CLEAR     49  46  90 CALM      30.31S
JEFFERSON      CLEAR     50  42  73 CALM      30.32F
HICKORY        CLEAR     54  49  83 CALM      30.27S
RUTHERFORDTON  CLEAR     50  50 100 CALM      30.28S
MOUNT AIRY     CLEAR     53  49  86 CALM      30.30S
BOONE          CLEAR     42  42 100 CALM      30.34S
$$

NCZ021-022-025-041-071-084-088-210600-
CENTRAL NORTH CAROLINA

CITY           SKY/WX    TMP DP  RH WIND       PRES   REMARKS
CHARLOTTE      CLEAR     54  51  90 N3        30.26S
GREENSBORO     CLEAR     55  51  86 CALM      30.26F
WINSTON-SALEM  CLEAR     55  49  80 CALM      30.28S
RALEIGH-DURHAM CLEAR     53  53 100 CALM      30.27R
FORT BRAGG     CLEAR     52  50  93 CALM      30.25R
FAYETTEVILLE   CLEAR     56  53  90 CALM      30.25R
BURLINGTON     CLEAR     51  49  92 CALM      30.27S
LAURINBURG     CLEAR     52  51  97 NE5       30.26S
$$

NCZ011-015-027-028-043-044-047-080-103-210600-
NORTHEASTERN NORTH CAROLINA

CITY           SKY/WX    TMP DP  RH WIND       PRES   REMARKS
ROCKY MT-WILSO CLEAR     51  51 100 CALM      30.26S FOG
GREENVILLE     CLEAR     54  54 100 CALM      30.26S FOG
WASHINGTON     CLEAR     53  52  94 CALM      30.26S
ELIZABETH CITY CLEAR     57  57 100 CALM      30.26R
MANTEO         FOG      N/A N/A N/A CALM      30.26S VSB 1/4
CAPE HATTERAS  CLEAR     60  59  96 NE3       30.25S
$$

NCZ078-087-090-091-093-098-101-210600-
SOUTHEASTERN NORTH CAROLINA

CITY           SKY/WX    TMP DP  RH WIND       PRES   REMARKS
LUMBERTON      CLEAR     51  51 100 CALM      30.24S
GOLDSBORO      CLEAR     55  51  87 CALM      30.24R FOG
KINSTON        CLEAR     52  50  94 CALM      30.26S
KENANSVILLE    CLEAR     50  48  93 CALM      30.26S
NEW BERN       CLEAR     55  55 100 CALM      30.27R
CHERRY POINT   CLEAR     56  55  97 CALM      30.26S
BEAUFORT       CLEAR     56  56 100 CALM      30.25S
JACKSONVILLE   CLEAR     55  55 100 CALM      30.25R
WILMINGTON     CLEAR     56  54  93 CALM      30.25S
$$





USA.gov is the U.S. government's official web portal to all federal, state and local government web resources and services.